Location: Karaa?a�
(36.7158°N, 30.4165°E)
Time: 00:06:39
(UTC+00:00)

MetOp-B - Pass Details

Date: 09 April 2020
Orbit: 819 x 822 km, 98.7° (Epoch: 06 June)

Event Time Altitude Azimuth Distance (km) Brightness Sun altitude
Exits shadow 18:50:58 66° 43° (NE) 894 4.2 -27.2°
Drops below altitude 10° 18:55:53 10° 352° (N) 2,425 7.1 -28.0°
Sets 18:58:15 0° 350° (N) 3,362 8.0 -28.3°
